This is the latest recevied weather packets stored in our database for station/object OM6ACB-6. If no packets are shown the sender has not sent any weather packets the latest 10 day(s).
| Time | Temp. | Humidity | Pressure | Rain* | Wind** | Luminosity | Snow |
|---|---|---|---|---|---|---|---|
| 1788265402 | 22.22° C | 21% | 1024 hPa | 0 mm | - | - | - |
| 1788264802 | 22.78° C | 21% | 1024.1 hPa | 0 mm | - | - | - |
| 1788264202 | 25.56° C | 20% | 1024.5 hPa | 0 mm | - | - | - |
| 1788263601 | 25° C | 20% | 1024.6 hPa | 0 mm | - | - | - |
| 1788263001 | 24.44° C | 20% | 1024.1 hPa | 0 mm | - | - | - |
| 1788262401 | 24.44° C | 20% | 1024.3 hPa | 0 mm | - | - | - |
| 1788261800 | 22.22° C | 21% | 1024.1 hPa | 0 mm | - | - | - |
| 1788261200 | 22.22° C | 22% | 1024 hPa | 0 mm | - | - | - |
| 1788260600 | 23.89° C | 21% | 1024.2 hPa | 0 mm | - | - | - |
| 1788260000 | 22.22° C | 21% | 1024 hPa | 0 mm | - | - | - |
| 1788259399 | 22.78° C | 21% | 1024.1 hPa | 0 mm | - | - | - |
| 1788258799 | 22.78° C | 21% | 1024 hPa | 0 mm | - | - | - |
| 1788258199 | 23.33° C | 21% | 1023.9 hPa | 0 mm | - | - | - |
| 1788257599 | 22.78° C | 21% | 1023.9 hPa | 0 mm | - | - | - |
| 1788256998 | 23.33° C | 21% | 1024 hPa | 0 mm | - | - | - |
| 1788256398 | 25.56° C | 20% | 1024.3 hPa | 0 mm | - | - | - |
| 1788255797 | 24.44° C | 20% | 1024.2 hPa | 0 mm | - | - | - |
| 1788255219 | 23.89° C | 21% | 1024.5 hPa | 0 mm | - | - | - |
| 1788254597 | 24.44° C | 20% | 1024.2 hPa | 0 mm | - | - | - |
| 1788253997 | 25° C | 20% | 1024.4 hPa | 0 mm | - | - | - |
| 1788253396 | 24.44° C | 20% | 1024.3 hPa | 0 mm | - | - | - |
| 1788252796 | 23.33° C | 21% | 1024.3 hPa | 0 mm | - | - | - |
| 1788252196 | 23.33° C | 21% | 1024 hPa | 0 mm | - | - | - |
| 1788251596 | 24.44° C | 20% | 1024.2 hPa | 0 mm | - | - | - |
| 1788250995 | 23.89° C | 20% | 1024.1 hPa | 0 mm | - | - | - |
* Rain latest hour (hover to see other rain measurements)
** Current wind speed in m/s (hover to see current wind gust speed)